Content
SEND FEEDBACK

Canada Flag

VANCOUVER, BRITISH COLUMBIA


Home > North America > Canada > British Columbia
Elevation: 7 feet     Latitude: 49 11N     Longitude: 123 10W

WEATHER
 
SELECT A DAY
Number of Records: 269,793;   Date Range: 5/15/97 - 3/22/16
 
SHARE

PRINT THIS DATA

[ ← Previous Day ]
WEATHER ALMANAC - JULY 27, 2013
[ Next Day → ]
[ °C ]   °F
Weather ElementAverageHighLow
Temperature62.2 °F71.6 °F (6:15 pm)53.6 °F (5:35 am)
Dewpoint52.9 °F55.4 °F (9:35 am)50 °F (2:35 am)
Humidity72.7 %94 % (6:35 am)46 % (7:55 pm)
Barometer30.08 in30.14 in (6:35 am)29.98 in (11:35 pm)
Wind Speed3 mph9.2 mph (9:35 pm)
Weather ElementAverage
Visibility9.9 mi
Wind DirectionSE (134.6 °)

Weather ElementTotal
Precipitation---
Heating Degree Days2.4 (Base 65)
Growing Degree Days12.6 (Base 50)
Averaged from 71 records on July 27, 2013
WEATHER CONDITIONS BREAKOUT
WIND DIRECTION BREAKOUT
WEATHER BY HOUR - JULY 27, 2013
[ °C ]   °F
Local TimeTemperatureDewpointHumidityBarometerVisibilityWind DirectionWind SpeedGust SpeedPrecipitationEventsConditions
12:35 AM57.2 °F51.8 °F82 %30.10 in10.0 miCalmClear
12:55 AM57.2 °F51.8 °F82 %30.10 in10.0 miNorthClear
1:15 AM57.2 °F51.8 °F82 %30.10 in10.0 miCalmClear
1:35 AM57.2 °F51.8 °F82 %30.11 in10.0 miSSE (160°)3.5 mphClear
1:55 AM57.2 °F51.8 °F82 %30.11 in10.0 miCalmClear
2:15 AM57.2 °F51.8 °F82 %30.11 in10.0 miNorthClear
2:35 AM57.2 °F50.0 °F77 %30.11 in10.0 miCalmClear
2:55 AM57.2 °F50.0 °F77 %30.11 in10.0 miSouth (180°)4.6 mphClear
3:15 AM57.2 °F51.8 °F82 %30.11 in10.0 miSouth (180°)4.6 mphClear
3:35 AM57.2 °F51.8 °F82 %30.11 in10.0 miSouth (180°)4.6 mphClear
3:55 AM57.2 °F51.8 °F82 %30.12 in10.0 miSouth (180°)5.8 mphClear
4:15 AM55.4 °F51.8 °F88 %30.11 in10.0 miSouth (190°)3.5 mphClear
4:35 AM55.4 °F51.8 °F88 %30.12 in10.0 miSouth (170°)4.6 mphClear
4:55 AM55.4 °F51.8 °F88 %30.12 in10.0 miSouth (170°)4.6 mphClear
5:15 AM55.4 °F51.8 °F88 %30.12 in10.0 miSouth (170°)4.6 mphClear
5:35 AM53.6 °F50.0 °F88 %30.13 in10.0 miSouth (180°)3.5 mphClear
5:55 AM53.6 °F50.0 °F88 %30.13 in9.0 miCalmClear
6:15 AM53.6 °F50.0 °F88 %30.13 in9.0 miCalmClear
6:35 AM53.6 °F51.8 °F94 %30.14 in9.0 miCalmClear
6:55 AM55.4 °F51.8 °F88 %30.14 in9.0 miCalmClear
7:15 AM57.2 °F53.6 °F88 %30.14 in10.0 miCalmClear
7:35 AM57.2 °F53.6 °F88 %30.14 in10.0 miSSW (200°)3.5 mphClear
7:55 AM57.2 °F53.6 °F88 %30.14 in9.0 miSouth (190°)3.5 mphClear
8:15 AM59.0 °F53.6 °F82 %30.14 in10.0 miCalmClear
8:35 AM60.8 °F53.6 °F77 %30.13 in10.0 miCalmClear
8:55 AM62.6 °F53.6 °F72 %30.14 in10.0 miNorth (360°)3.5 mphClear
9:15 AM62.6 °F53.6 °F72 %30.14 in10.0 miCalmClear
9:35 AM62.6 °F55.4 °F77 %30.14 in10.0 miCalmClear
9:55 AM62.6 °F53.6 °F72 %30.14 in10.0 miNorth (10°)3.5 mphClear
10:15 AM62.6 °F53.6 °F72 %30.14 in10.0 miCalmClear
10:35 AM62.6 °F51.8 °F68 %30.14 in10.0 miCalmClear
10:55 AM62.6 °F53.6 °F72 %30.13 in10.0 miNorth (360°)3.5 mphClear
11:15 AM62.6 °F53.6 °F72 %30.13 in10.0 miCalmClear
11:35 AM64.4 °F55.4 °F73 %30.13 in10.0 miNorth (350°)4.6 mphClear
11:55 AM64.4 °F55.4 °F73 %30.13 in10.0 miCalmClear
12:15 PM64.4 °F55.4 °F73 %30.12 in10.0 miNorth (350°)4.6 mphClear
12:35 PM64.4 °F55.4 °F73 %30.12 in10.0 miNorth (350°)5.8 mphClear
12:55 PM64.4 °F55.4 °F73 %30.11 in10.0 miNorth (350°)5.8 mphClear
1:15 PM64.4 °F55.4 °F73 %30.11 in10.0 miNorth (350°)5.8 mphClear
1:35 PM64.4 °F55.4 °F73 %30.10 in10.0 miNNW (340°)3.5 mphClear
1:55 PM64.4 °F55.4 °F73 %30.10 in10.0 miCalmClear
2:15 PM64.4 °F55.4 °F73 %30.09 in10.0 miNorth (10°)3.5 mphClear
2:35 PM64.4 °F55.4 °F73 %30.09 in10.0 miNorth (360°)5.8 mphClear
2:55 PM64.4 °F55.4 °F73 %30.08 in10.0 miNNW (330°)3.5 mphClear
3:15 PM66.2 °F55.4 °F68 %30.07 in10.0 miNorth (360°)4.6 mphClear
3:35 PM66.2 °F55.4 °F68 %30.07 in10.0 miCalmClear
3:55 PM66.2 °F55.4 °F68 %30.06 in10.0 miNNW (340°)3.5 mphClear
4:15 PM66.2 °F55.4 °F68 %30.06 in10.0 miNorth (360°)5.8 mphClear
4:35 PM68.0 °F53.6 °F60 %30.05 in10.0 miNorth (350°)4.6 mphClear
4:55 PM68.0 °F55.4 °F64 %30.04 in10.0 miCalmClear
5:15 PM68.0 °F55.4 °F64 %30.03 in10.0 miCalmClear
5:35 PM68.0 °F53.6 °F60 %30.03 in10.0 miCalmClear
5:55 PM69.8 °F51.8 °F53 %30.02 in10.0 miNorth (10°)3.5 mphClear
6:15 PM71.6 °F53.6 °F53 %30.01 in10.0 miCalmClear
6:35 PM71.6 °F53.6 °F53 %30.01 in10.0 miSouth (190°)6.9 mphClear
6:55 PM71.6 °F53.6 °F53 %30.00 in10.0 miSW (220°)4.6 mphClear
7:15 PM71.6 °F53.6 °F53 %29.99 in10.0 miSSW (200°)6.9 mphClear
7:35 PM71.6 °F51.8 °F50 %29.99 in10.0 miSSW (210°)5.8 mphClear
7:55 PM71.6 °F50.0 °F46 %29.99 in10.0 miSSW (200°)6.9 mphClear
8:15 PM69.8 °F50.0 °F49 %29.99 in10.0 miSouth (190°)6.9 mphClear
8:35 PM68.0 °F51.8 °F56 %29.99 in10.0 miCalmClear
8:55 PM66.2 °F51.8 °F60 %29.99 in10.0 miSouth (190°)4.6 mphClear
9:15 PM64.4 °F53.6 °F68 %29.99 in10.0 miSouth (180°)5.8 mphClear
9:35 PM64.4 °F53.6 °F68 %29.99 in10.0 miSouth (190°)9.2 mphClear
9:55 PM62.6 °F51.8 °F68 %29.99 in10.0 miSouth (180°)6.9 mphClear
10:15 PM62.6 °F50.0 °F63 %29.99 in10.0 miSouth (190°)5.8 mphClear
10:35 PM62.6 °F50.0 °F63 %29.99 in10.0 miSSE (160°)3.5 mphClear
10:55 PM60.8 °F50.0 °F68 %29.99 in10.0 miCalmClear
11:15 PM60.8 °F51.8 °F72 %29.99 in10.0 miSouth (170°)3.5 mphClear
11:35 PM59.0 °F51.8 °F77 %29.98 in10.0 miCalmClear
11:55 PM59.0 °F51.8 °F77 %29.98 in10.0 miCalmClear
Hourly data recorded from CZBB, located miles away from Vancouver, British Columbia




STORIES FROM OUR PARTNERS